Temp
-8 -8 -8 -8 -9 -9 -9 -9 -9 -9 -10 -10 -9 -9 -9 -10 -10 -11 -11 -11 -11 -11 -12 -13 -14 -15 -18 -19 -18 -17 -17 -18 -20 -21 -21 -21 -20 -20 -18 -17 -16 -15 -14 -15 -13
-8 -8 -8 -9 -9 -9 -9 -9 -10 -9 -10 -10 -10 -10 -10 -10 -11 -11 -11 -11 -11 -12 -13 -14 -15 -16 -18 -18 -17 -17 -17 -19 -20 -21 -22 -22 -21 -19 -17 -16 -16 -16 -15 -15 -13
-8 -8 -9 -9 -9 -9 -9 -10 -10 -10 -10 -10 -10 -10 -10 -10 -11 -11 -11 -12 -12 -13 -14 -15 -15 -17 -19 -19 -18 -18 -19 -19 -20 -22 -22 -22 -21 -20 -19 -17 -16 -17 -15 -16 -15
-8 -8 -9 -9 -10 -10 -9 -10 -10 -10 -10 -10 -10 -10 -10 -11 -11 -11 -12 -12 -13 -13 -14 -15 -16 -18 -19 -19 -18 -19 -19 -20 -21 -22 -22 -22 -21 -20 -19 -17 -17 -15 -14 -15 -16
-9 -9 -9 -10 -10 -10 -9 -10 -10 -10 -10 -10 -10 -10 -10 -11 -11 -12 -12 -12 -13 -13 -15 -16 -17 -19 -20 -19 -19 -20 -20 -21 -22 -23 -23 -22 -22 -21 -19 -19 -18 -17 -17 -15 -14
-9 -9 -9 -10 -10 -10 -10 -10 -10 -11 -11 -11 -11 -11 -11 -11 -12 -12 -12 -12 -13 -14 -15 -16 -17 -20 -20 -20 -20 -21 -22 -22 -23 -23 -23 -21 -22 -21 -21 -19 -18 -17 -16 -15 -15
-9 -9 -10 -10 -11 -11 -10 -10 -10 -11 -11 -11 -11 -11 -11 -11 -11 -12 -12 -12 -13 -14 -16 -16 -18 -20 -20 -21 -22 -22 -23 -23 -23 -23 -23 -22 -22 -22 -22 -20 -20 -18 -17 -16 -16
-9 -10 -10 -11 -11 -11 -11 -11 -11 -11 -11 -11 -11 -11 -12 -11 -12 -12 -12 -14 -14 -15 -16 -17 -18 -20 -21 -21 -23 -23 -23 -23 -22 -23 -23 -23 -22 -22 -21 -21 -20 -18 -18 -16 -16
-10 -10 -11 -11 -11 -11 -11 -11 -11 -11 -11 -11 -11 -11 -11 -12 -12 -13 -13 -13 -14 -15 -16 -17 -19 -20 -20 -22 -23 -24 -24 -23 -23 -23 -23 -23 -22 -22 -21 -20 -20 -19 -17 -17 -17
-10 -11 -11 -11 -11 -11 -12 -11 -12 -12 -11 -11 -11 -11 -11 -12 -13 -13 -13 -14 -15 -16 -17 -17 -19 -20 -22 -23 -23 -23 -24 -24 -23 -23 -23 -23 -22 -21 -21 -20 -20 -20 -18 -18 -17
-11 -11 -11 -12 -12 -12 -12 -12 -11 -11 -11 -12 -11 -12 -12 -13 -13 -13 -14 -14 -15 -16 -17 -18 -20 -21 -22 -23 -23 -24 -24 -24 -23 -23 -23 -23 -22 -21 -21 -20 -20 -19 -18 -18 -16
-11 -11 -12 -11 -12 -12 -12 -12 -12 -12 -12 -12 -12 -12 -12 -13 -13 -13 -14 -14 -16 -17 -18 -18 -21 -23 -24 -23 -23 -23 -24 -23 -23 -23 -22 -22 -21 -21 -20 -20 -20 -20 -19 -18 -17
-11 -12 -12 -11 -12 -12 -12 -12 -11 -11 -12 -12 -12 -13 -13 -13 -13 -14 -14 -15 -16 -17 -18 -19 -21 -22 -24 -23 -23 -23 -23 -23 -23 -23 -22 -22 -21 -21 -20 -20 -20 -20 -19 -18 -17
-12 -12 -11 -11 -12 -12 -12 -12 -12 -12 -12 -12 -12 -12 -13 -14 -14 -14 -15 -16 -17 -18 -18 -19 -21 -22 -23 -23 -23 -23 -23 -23 -23 -23 -22 -21 -21 -21 -20 -20 -20 -20 -19 -17 -17
-12 -12 -11 -12 -12 -12 -12 -12 -12 -12 -12 -12 -13 -14 -14 -14 -14 -15 -15 -17 -17 -18 -19 -19 -21 -23 -24 -23 -23 -23 -23 -23 -23 -23 -22 -21 -20 -20 -20 -19 -20 -19 -18 -17 -17
-12 -12 -12 -12 -12 -12 -12 -12 -12 -13 -13 -13 -14 -14 -14 -15 -15 -15 -16 -17 -18 -19 -19 -20 -22 -23 -24 -24 -24 -23 -23 -23 -22 -22 -22 -21 -21 -21 -20 -20 -19 -18 -17 -17 -17
-12 -12 -12 -12 -12 -12 -12 -12 -12 -13 -13 -14 -14 -14 -14 -15 -15 -16 -16 -17 -18 -19 -19 -20 -22 -24 -24 -24 -24 -24 -23 -23 -23 -22 -22 -22 -21 -21 -20 -20 -19 -18 -18 -17 -17
-12 -12 -12 -13 -12 -12 -13 -12 -13 -13 -14 -14 -15 -15 -15 -15 -16 -16 -17 -18 -19 -20 -20 -20 -22 -24 -25 -25 -25 -24 -23 -23 -23 -23 -22 -22 -22 -21 -20 -19 -18 -18 -17 -17 -16
-13 -13 -12 -13 -12 -13 -13 -13 -13 -14 -14 -15 -15 -15 -15 -16 -17 -17 -18 -19 -20 -20 -20 -21 -23 -25 -25 -25 -25 -24 -23 -23 -23 -22 -22 -22 -21 -20 -20 -19 -18 -18 -17 -16 -16
-13 -13 -13 -13 -13 -13 -13 -13 -14 -14 -15 -15 -15 -15 -16 -16 -17 -18 -19 -19 -20 -20 -20 -21 -24 -25 -25 -25 -25 -25 -24 -23 -23 -22 -21 -21 -21 -20 -20 -19 -18 -18 -17 -16 -16
-13 -13 -13 -13 -13 -13 -13 -14 -14 -15 -15 -16 -16 -16 -16 -17 -18 -19 -19 -20 -21 -21 -21 -22 -24 -25 -25 -25 -25 -25 -24 -24 -23 -23 -22 -22 -21 -21 -21 -19 -18 -18 -17 -16 -16
-13 -13 -13 -13 -13 -13 -14 -14 -15 -15 -16 -16 -16 -16 -16 -18 -18 -19 -20 -20 -21 -21 -21 -23 -23 -25 -26 -25 -25 -25 -24 -24 -23 -23 -22 -22 -22 -21 -21 -20 -19 -18 -17 -16 -15
-14 -13 -13 -13 -13 -14 -14 -15 -15 -16 -16 -16 -16 -16 -17 -18 -19 -20 -20 -21 -21 -22 -22 -23 -24 -25 -26 -26 -26 -25 -25 -24 -24 -23 -22 -22 -22 -21 -20 -20 -19 -18 -17 -16 -17
-14 -14 -13 -13 -14 -14 -15 -15 -16 -16 -16 -16 -16 -17 -18 -19 -19 -20 -21 -21 -22 -22 -22 -23 -24 -25 -26 -26 -26 -26 -25 -25 -24 -24 -23 -22 -22 -21 -21 -20 -19 -18 -17 -17 -16
-14 -14 -13 -14 -14 -14 -15 -16 -16 -16 -16 -16 -16 -17 -18 -19 -20 -21 -21 -22 -22 -23 -23 -24 -24 -25 -26 -26 -26 -26 -26 -25 -24 -24 -23 -22 -22 -21 -21 -20 -19 -19 -18 -18 -17
-14 -14 -14 -14 -14 -15 -15 -16 -16 -16 -16 -16 -17 -18 -19 -19 -20 -21 -22 -22 -23 -23 -23 -24 -24 -25 -26 -26 -26 -26 -26 -25 -25 -24 -23 -23 -22 -21 -21 -20 -20 -19 -19 -18 -17
-14 -14 -14 -15 -15 -15 -16 -16 -16 -16 -16 -17 -18 -18 -20 -20 -21 -22 -22 -23 -23 -24 -24 -24 -25 -25 -26 -26 -26 -26 -26 -26 -25 -24 -24 -23 -22 -21 -21 -20 -20 -20 -19 -18 -17
Height
5827 5824 5821 5817 5813 5807 5801 5795 5789 5783 5778 5773 5768 5763 5757 5751 5744 5736 5727 5720 5709 5693 5676 5660 5642 5625 5611 5604 5597 5588 5584 5584 5584 5583 5590 5594 5596 5611 5624 5638 5646 5656 5668 5674 5689
5824 5821 5818 5814 5809 5804 5796 5790 5784 5778 5774 5769 5763 5756 5750 5743 5736 5728 5720 5709 5697 5682 5667 5649 5634 5616 5605 5596 5587 5578 5576 5576 5575 5574 5578 5584 5590 5600 5607 5625 5634 5649 5660 5665 5682
5821 5818 5814 5810 5805 5800 5793 5786 5780 5775 5769 5763 5757 5752 5745 5737 5729 5721 5711 5699 5685 5671 5653 5637 5621 5607 5596 5586 5579 5571 5569 5569 5568 5568 5573 5577 5583 5589 5604 5611 5626 5639 5650 5656 5669
5818 5815 5811 5806 5801 5796 5789 5782 5776 5770 5764 5758 5753 5747 5739 5731 5723 5712 5701 5690 5676 5661 5645 5630 5613 5599 5588 5580 5571 5565 5563 5563 5564 5564 5565 5572 5577 5585 5593 5606 5616 5628 5639 5649 5660
5814 5811 5807 5802 5797 5791 5786 5778 5772 5766 5759 5753 5747 5740 5733 5726 5716 5707 5697 5683 5668 5653 5637 5622 5606 5593 5583 5574 5566 5561 5561 5560 5561 5561 5562 5568 5576 5580 5590 5596 5607 5620 5631 5646 5651
5809 5806 5803 5798 5793 5787 5781 5774 5768 5761 5755 5749 5742 5736 5729 5720 5710 5700 5689 5676 5661 5645 5631 5615 5599 5586 5577 5571 5562 5559 5558 5558 5558 5559 5559 5562 5570 5575 5588 5590 5599 5609 5623 5632 5640
5806 5801 5798 5794 5789 5783 5777 5769 5763 5756 5750 5744 5738 5731 5724 5716 5707 5696 5682 5670 5657 5641 5624 5607 5592 5583 5574 5566 5560 5558 5558 5557 5557 5557 5558 5558 5565 5573 5578 5583 5587 5600 5608 5621 5634
5802 5798 5794 5789 5784 5778 5773 5765 5758 5752 5745 5739 5734 5725 5719 5709 5699 5688 5675 5659 5646 5633 5618 5604 5589 5578 5571 5562 5556 5555 5555 5556 5557 5555 5555 5557 5564 5569 5573 5579 5583 5593 5604 5615 5625
5799 5795 5790 5785 5780 5775 5768 5762 5755 5748 5741 5735 5729 5721 5712 5703 5691 5679 5670 5659 5643 5628 5613 5597 5583 5576 5567 5558 5556 5555 5555 5556 5556 5556 5555 5558 5561 5567 5574 5578 5583 5593 5601 5609 5618
5796 5791 5787 5781 5776 5770 5763 5756 5750 5743 5737 5730 5723 5716 5708 5700 5689 5677 5660 5646 5633 5621 5607 5595 5580 5572 5563 5557 5553 5553 5554 5554 5555 5556 5557 5558 5563 5568 5574 5578 5583 5587 5597 5605 5614
5792 5788 5783 5778 5772 5765 5760 5752 5747 5744 5732 5725 5719 5712 5704 5695 5683 5672 5660 5645 5629 5613 5601 5588 5576 5567 5560 5554 5550 5551 5552 5553 5554 5557 5558 5560 5564 5570 5575 5580 5584 5588 5596 5606 5614
5787 5783 5779 5773 5766 5759 5754 5747 5741 5735 5728 5721 5714 5706 5697 5690 5682 5668 5655 5642 5626 5614 5598 5581 5570 5563 5558 5553 5549 5550 5551 5553 5556 5557 5559 5561 5565 5571 5575 5579 5581 5584 5593 5600 5608
5783 5779 5775 5769 5762 5756 5749 5743 5736 5730 5725 5717 5710 5703 5696 5685 5675 5666 5653 5637 5623 5608 5597 5583 5572 5563 5557 5551 5549 5550 5552 5554 5558 5558 5561 5564 5568 5571 5575 5576 5579 5584 5591 5598 5607
5778 5775 5771 5765 5759 5753 5745 5740 5732 5726 5720 5714 5706 5697 5690 5679 5669 5657 5642 5633 5618 5607 5594 5584 5572 5564 5556 5550 5550 5551 5553 5554 5558 5560 5562 5567 5572 5573 5575 5576 5580 5583 5590 5597 5605
5775 5771 5766 5759 5754 5747 5741 5735 5728 5722 5716 5710 5701 5691 5682 5674 5664 5652 5639 5626 5614 5603 5593 5581 5570 5563 5557 5551 5551 5554 5554 5556 5559 5561 5562 5567 5571 5572 5577 5579 5583 5585 5591 5599 5602
5770 5767 5761 5755 5749 5744 5737 5731 5725 5720 5711 5705 5696 5688 5679 5669 5659 5648 5637 5622 5608 5598 5590 5578 5568 5562 5557 5553 5554 5555 5557 5558 5561 5563 5563 5566 5568 5571 5577 5580 5582 5585 5592 5599 5602
5766 5761 5756 5749 5745 5739 5732 5727 5721 5714 5708 5701 5693 5685 5675 5665 5656 5645 5634 5622 5614 5605 5591 5577 5569 5563 5559 5556 5556 5557 5558 5560 5562 5566 5566 5570 5572 5573 5577 5581 5583 5587 5594 5600 5599
5761 5755 5750 5745 5741 5735 5728 5723 5716 5710 5702 5695 5688 5679 5672 5664 5650 5639 5628 5618 5606 5597 5588 5580 5571 5565 5561 5558 5558 5559 5560 5561 5563 5567 5569 5570 5572 5574 5577 5582 5584 5589 5593 5597 5604
5754 5749 5744 5740 5736 5730 5725 5719 5711 5705 5699 5691 5684 5675 5666 5655 5645 5633 5623 5612 5604 5595 5587 5578 5570 5565 5563 5560 5561 5561 5562 5564 5565 5567 5571 5573 5574 5577 5578 5581 5586 5588 5591 5598 5604
5748 5742 5738 5735 5731 5726 5721 5714 5707 5701 5694 5687 5678 5671 5661 5651 5641 5630 5619 5608 5600 5592 5581 5575 5569 5566 5564 5562 5561 5562 5564 5566 5568 5570 5572 5574 5576 5578 5579 5583 5586 5590 5592 5599 5605
5741 5736 5733 5731 5728 5722 5716 5710 5703 5696 5690 5683 5674 5666 5657 5647 5637 5627 5616 5608 5597 5589 5583 5574 5569 5568 5563 5562 5561 5564 5565 5567 5569 5571 5570 5575 5578 5579 5581 5583 5587 5593 5592 5600 5609
5735 5731 5729 5727 5723 5717 5710 5704 5699 5692 5685 5678 5671 5662 5653 5643 5633 5624 5614 5604 5597 5589 5583 5575 5569 5566 5564 5561 5561 5564 5566 5567 5569 5572 5571 5574 5578 5579 5582 5583 5587 5593 5596 5602 5606
5728 5725 5724 5722 5717 5711 5706 5700 5694 5688 5681 5674 5667 5658 5648 5639 5631 5621 5610 5601 5594 5587 5581 5574 5568 5566 5564 5564 5562 5563 5566 5567 5568 5570 5570 5574 5577 5579 5582 5584 5590 5593 5597 5603 5609
5723 5720 5720 5717 5711 5707 5701 5695 5689 5683 5677 5670 5663 5654 5644 5635 5626 5617 5608 5598 5591 5585 5580 5573 5568 5565 5564 5563 5563 5563 5565 5567 5567 5571 5572 5574 5576 5580 5583 5586 5589 5594 5599 5606 5611
5716 5715 5714 5710 5706 5701 5696 5690 5684 5678 5672 5666 5657 5649 5641 5632 5621 5613 5604 5597 5590 5584 5579 5573 5568 5563 5562 5562 5562 5562 5564 5566 5567 5571 5573 5575 5576 5579 5583 5587 5590 5594 5599 5603 5609
5710 5709 5707 5704 5700 5695 5690 5684 5679 5674 5669 5660 5652 5644 5636 5628 5618 5608 5599 5593 5588 5581 5576 5571 5567 5562 5560 5561 5561 5561 5563 5565 5566 5569 5572 5573 5575 5579 5583 5586 5591 5596 5601 5605 5611
5702 5701 5700 5697 5694 5689 5684 5678 5673 5669 5663 5655 5647 5640 5630 5621 5612 5603 5595 5590 5586 5580 5573 5569 5564 5560 5558 5558 5559 5560 5560 5562 5564 5566 5569 5572 5574 5578 5582 5586 5590 5596 5601 5605 5610
Wind_Speed
25 28 31 32 37 40 40 39 36 34 32 31 34 34 37 41 44 48 53 52 57 63 69 73 74 66 54 46 43 41 32 28 24 25 22 41 47 46 52 48 63 65 66 63 44
26 28 31 34 39 41 43 40 37 35 33 34 33 35 39 44 47 50 54 57 61 66 70 74 73 62 48 45 40 34 24 22 24 25 25 41 44 43 62 64 54 54 55 55 56
27 28 32 35 39 42 42 41 39 37 36 33 35 38 43 47 48 53 55 61 65 68 72 74 72 60 46 42 39 26 19 19 23 24 26 36 49 54 58 55 58 48 63 56 52
29 30 32 37 39 43 42 41 41 40 38 33 36 40 44 48 50 55 60 63 67 70 74 74 70 54 47 42 38 19 18 16 16 20 22 31 51 53 53 63 61 65 55 51 49
30 31 33 37 39 44 42 43 42 42 38 35 37 42 46 49 52 57 61 66 70 72 76 73 67 51 43 41 32 13 14 13 11 14 18 33 34 51 56 49 59 57 59 55 54
31 32 36 38 39 43 42 44 43 41 37 36 38 43 47 51 55 58 64 67 71 72 75 74 65 49 43 39 23 8 9 10 10 10 15 36 29 39 56 59 61 58 55 54 71
31 33 36 37 40 44 43 45 43 39 36 37 39 44 47 52 54 59 65 69 71 71 73 72 61 47 41 37 15 2 5 10 13 11 13 34 38 21 36 65 60 50 63 57 39
31 33 37 39 41 45 46 45 41 38 37 38 41 44 48 53 57 61 66 70 72 72 73 70 58 45 37 33 8 2 6 3 6 9 8 17 32 30 32 51 66 51 72 59 38
31 34 38 42 42 47 46 43 41 37 38 39 42 45 50 54 59 64 67 70 71 70 70 69 55 41 36 31 8 3 3 4 7 8 5 6 22 27 26 35 50 64 71 50 36
29 33 36 41 44 46 44 42 40 38 38 39 44 47 50 55 58 63 70 72 72 69 69 65 52 40 35 29 9 12 11 10 12 4 6 6 13 20 20 35 46 48 55 38 36
29 33 36 41 46 43 44 42 39 34 37 40 42 46 49 55 59 65 68 70 69 70 66 62 47 39 34 31 10 10 9 8 8 4 5 8 13 15 12 12 38 43 47 42 52
29 35 39 46 45 43 42 43 38 37 40 43 43 47 51 55 58 64 67 68 66 64 61 60 44 36 30 29 6 8 9 8 4 2 8 11 18 14 11 13 18 39 42 40 47
31 37 41 46 44 41 39 37 35 35 38 38 46 47 51 57 61 63 66 67 64 61 58 57 43 32 29 26 4 5 5 5 8 5 13 10 6 12 6 13 22 32 35 44 52
34 40 44 45 39 37 36 36 34 36 40 43 47 49 52 58 62 65 66 64 63 58 56 53 39 31 27 20 2 4 5 5 9 17 12 16 5 10 8 4 18 21 42 51 53
34 40 43 44 38 34 36 35 35 38 43 46 47 51 55 59 60 63 67 63 60 57 55 50 37 27 26 15 1 3 6 5 16 10 21 11 7 19 11 10 10 7 35 44 51
36 41 42 39 35 35 35 33 36 40 44 46 48 52 56 58 62 64 64 61 59 56 53 45 32 25 24 12 3 4 7 6 12 13 14 10 7 21 14 14 12 11 30 36 47
39 40 40 36 32 34 34 33 38 41 45 48 50 52 57 59 60 64 63 57 53 48 48 44 32 22 20 11 3 5 9 9 8 12 8 3 8 22 16 11 10 17 18 25 46
39 39 39 34 32 34 35 34 38 42 45 49 52 55 56 58 62 62 59 54 53 50 47 40 27 19 19 12 3 6 8 8 13 9 8 6 2 4 15 19 16 23 34 26 34
35 37 36 31 31 34 36 36 40 44 45 50 52 55 57 60 62 61 58 54 52 48 46 39 27 19 17 15 3 3 9 11 14 12 10 7 5 11 11 30 12 20 22 27 26
35 37 33 32 33 34 36 39 41 43 46 49 52 55 57 61 62 59 56 52 50 45 46 38 23 14 15 16 2 4 11 13 16 17 8 14 16 11 9 28 15 21 25 34 22
33 28 28 31 32 33 35 38 41 44 45 49 52 56 59 62 63 56 54 50 48 45 44 36 24 15 13 15 2 7 14 14 19 3 10 14 14 11 6 28 16 18 26 23 28
26 28 28 30 31 33 35 39 42 44 47 50 52 56 61 63 63 56 51 49 46 41 41 35 26 12 11 15 7 10 13 18 10 9 15 15 16 12 7 17 26 12 31 29 35
26 28 30 31 34 33 37 39 42 45 46 50 54 58 61 60 59 52 50 47 44 40 39 35 27 11 9 11 9 12 13 19 11 9 16 14 18 17 13 13 19 12 29 25 23
26 28 31 33 34 36 38 40 42 44 48 52 56 59 62 61 56 49 48 45 42 39 39 34 27 14 7 7 9 7 13 16 17 12 14 13 19 20 15 14 16 20 29 28 31
25 28 31 32 36 37 38 41 42 45 49 54 58 62 62 60 52 47 47 44 40 37 37 31 26 18 8 7 7 4 10 13 16 17 12 14 19 20 19 13 18 18 21 20 23
26 27 28 32 36 38 39 41 43 48 51 54 59 60 60 61 51 47 44 41 38 37 35 31 25 20 11 9 7 6 13 12 15 21 18 15 20 22 22 18 15 16 13 16 20
24 25 26 32 37 39 41 41 44 48 51 56 58 61 61 57 50 47 43 39 36 33 32 29 25 21 11 12 9 8 6 18 16 19 21 20 21 24 23 22 15 14 17 10 23
Wind_Direction
318 320 325 331 336 339 338 333 329 325 325 329 327 329 329 329 329 329 332 332 337 337 335 332 331 327 322 317 313 305 292 285 275 262 233 204 212 203 198 197 213 210 223 227 221
318 321 325 331 337 341 338 333 331 328 330 332 332 331 330 332 331 334 332 335 337 335 332 332 332 328 324 319 317 305 288 285 264 251 222 211 210 198 192 192 201 209 197 218 216
319 322 327 331 337 342 339 337 335 332 332 335 335 333 334 334 334 333 337 339 337 335 333 334 334 330 327 325 322 299 284 278 266 255 231 212 208 203 199 193 190 198 204 206 219
321 323 326 331 335 343 341 337 338 337 335 337 336 336 335 335 334 337 339 338 337 336 334 335 334 335 329 329 326 294 287 290 268 258 243 211 204 198 192 202 188 189 188 203 207
320 323 326 330 334 342 343 336 338 338 337 336 337 338 336 337 338 338 338 338 340 337 336 337 335 334 332 333 325 294 291 296 278 255 244 205 203 204 202 194 191 193 196 194 186
318 322 324 329 334 341 343 338 341 339 338 337 338 337 338 342 339 339 340 340 341 339 336 338 336 335 335 337 327 302 314 318 306 270 238 210 192 204 204 204 200 194 181 189 198
317 319 323 328 334 340 341 340 341 339 338 338 338 336 340 340 340 341 339 342 340 338 338 340 335 336 336 338 321 300 9 353 328 300 251 223 213 190 198 206 211 197 190 189 200
316 319 322 327 334 338 337 337 339 337 339 340 339 338 339 339 342 343 342 338 339 340 339 340 336 335 337 339 315 137 31 26 348 327 256 225 218 210 205 206 213 185 181 184 203
316 321 323 327 333 336 335 337 336 338 340 339 341 340 340 341 342 339 341 341 341 340 340 342 338 336 335 346 300 274 196 209 248 286 263 205 208 215 204 212 213 203 190 193 202
318 322 322 328 332 335 334 335 336 338 337 340 343 343 343 343 340 340 342 343 342 340 341 342 338 339 342 343 311 206 243 237 232 299 244 195 198 197 206 208 206 213 191 198 200
318 325 327 331 333 332 331 334 332 338 337 341 340 341 342 342 342 341 343 343 342 342 343 342 338 339 341 343 319 216 220 214 219 264 218 190 172 184 170 211 209 226 197 198 186
316 327 332 334 332 330 332 334 337 338 340 340 340 339 340 340 342 344 344 344 343 342 345 341 341 339 340 342 307 224 222 202 174 145 184 191 160 174 174 169 223 210 201 204 194
315 324 332 333 330 330 331 333 336 336 340 344 341 338 337 340 341 343 346 346 343 343 345 343 341 337 341 343 305 208 209 180 158 146 164 138 151 165 150 216 218 210 211 203 196
315 326 332 329 329 328 330 334 336 337 341 342 339 340 340 337 341 344 344 345 343 342 347 344 342 341 347 347 294 191 172 174 157 144 138 121 163 173 181 219 221 216 214 191 195
315 328 329 327 326 327 331 336 337 340 341 338 339 338 337 340 342 344 346 343 342 344 347 345 345 348 348 354 75 136 153 164 144 165 149 153 165 210 203 186 146 143 207 203 211
315 327 325 324 321 324 331 333 337 339 340 338 338 338 338 340 342 346 347 344 342 344 346 348 347 346 358 2 64 111 135 154 174 168 187 161 127 180 182 218 130 142 208 209 217
315 322 322 321 317 324 330 331 335 336 336 337 336 337 338 339 342 346 349 344 342 345 348 348 347 349 2 0 77 115 128 142 169 186 212 142 120 171 183 205 139 135 174 181 217
314 318 320 315 315 326 330 330 333 332 335 336 337 336 337 341 343 347 348 344 343 347 351 350 348 351 2 4 51 135 140 135 143 153 187 142 127 36 189 194 120 141 154 194 212
312 314 312 311 313 325 331 331 331 333 334 336 337 337 339 343 344 348 348 342 344 348 353 352 352 353 3 2 41 114 146 152 147 147 156 159 120 82 185 200 144 130 141 165 193
309 308 303 310 313 321 325 330 331 333 333 334 336 337 339 343 345 348 348 344 344 349 352 353 349 345 348 356 316 112 146 155 158 150 153 160 144 149 189 200 128 130 136 151 167
303 304 302 312 317 321 325 329 330 331 333 334 336 337 340 343 346 346 345 343 344 349 349 353 351 342 347 352 333 157 160 157 164 117 110 187 176 189 211 207 187 131 136 160 189
296 302 306 312 318 319 326 328 330 331 331 333 335 337 339 343 345 343 343 341 344 347 348 352 350 332 334 348 3 176 173 169 177 117 130 161 175 172 182 228 217 138 145 162 163
296 291 299 312 319 319 322 327 329 328 330 333 335 337 339 342 344 342 339 339 343 346 348 352 350 333 318 350 7 191 173 183 184 160 154 160 158 147 161 233 196 131 147 152 185
296 291 297 309 315 317 321 324 325 325 328 332 333 335 337 341 345 339 336 338 343 345 349 351 350 334 309 334 352 209 195 197 197 191 166 168 154 160 168 225 228 138 137 158 167
292 292 298 308 313 316 319 323 322 323 326 329 330 332 336 341 342 337 335 337 342 346 347 350 348 340 280 301 329 264 211 214 207 195 189 184 154 162 168 192 223 168 137 133 154
292 296 299 309 313 314 314 319 319 320 324 327 328 331 335 341 342 336 332 336 340 344 344 349 347 344 279 269 293 313 218 210 212 204 202 192 180 165 174 171 213 219 172 146 140
287 292 302 309 313 312 312 315 317 322 325 323 327 331 338 341 340 333 332 339 340 343 344 348 345 344 310 249 271 295 272 218 222 215 213 211 185 171 177 179 198 208 206 157 160